• în Republica Moldova
  • Lista ţărilor
  • Pe 7 zile
  • Temperatura apei
  • Hartă satelitară
  • Meteo pe hartă
  • Widget-uri
  • user-avatar
    Intrare

    Meteo pe oră la Klagenfurt

    Astăzi, 21 Februarie, Marţi

    Timp Temperatura Precipitaţii Vânt Presiune Umiditate
    00:00 0°C° 0 mm 1 m/s 690 mmHg 95%
    01:00 0°C° 0 mm 1 m/s 689 mmHg 94%
    02:00 +1°C° 0 mm 1 m/s 689 mmHg 94%
    03:00 +1°C° 0 mm 1 m/s 689 mmHg 94%
    04:00 +1°C° 0 mm 1 m/s 689 mmHg 93%
    05:00 +1°C° 0 mm 1 m/s 689 mmHg 94%
    06:00 0°C° 0 mm 1 m/s 689 mmHg 94%
    07:00 0°C° 0 mm 1 m/s 688 mmHg 94%
    08:00 +2°C° 0 mm 1 m/s 688 mmHg 90%
    09:00 +2°C° 0 mm 2 m/s 689 mmHg 86%
    10:00 +4°C° 0 mm 2 m/s 689 mmHg 82%
    11:00 +4°C° 0 mm 2 m/s 689 mmHg 82%
    12:00 +5°C° 0 mm 2 m/s 688 mmHg 81%
    13:00 +5°C° 0 mm 2 m/s 688 mmHg 81%
    14:00 +5°C° 0 mm 2 m/s 688 mmHg 82%
    15:00 +5°C° 0 mm 2 m/s 688 mmHg 84%
    16:00 +5°C° 0 mm 2 m/s 688 mmHg 86%
    17:00 +4°C° 0,1 mm 2 m/s 688 mmHg 89%
    18:00 +4°C° 0,1 mm 1 m/s 688 mmHg 92%
    19:00 +3°C° 0,1 mm 1 m/s 688 mmHg 95%
    20:00 +3°C° 0,1 mm 1 m/s 688 mmHg 95%
    21:00 +3°C° 0,1 mm 1 m/s 689 mmHg 94%
    22:00 +3°C° 0,1 mm 1 m/s 689 mmHg 94%
    23:00 +2°C° 0,1 mm 1 m/s 689 mmHg 94%

    Mâine, 22 Februarie, Miercuri

    Timp Temperatura Precipitaţii Vânt Presiune Umiditate
    00:00 +2°C° 0,1 mm 1 m/s 689 mmHg 94%
    01:00 +2°C° 0,1 mm 1 m/s 689 mmHg 95%
    02:00 +2°C° 0 mm 1 m/s 689 mmHg 94%
    03:00 +2°C° 0 mm 1 m/s 689 mmHg 94%
    04:00 +1°C° 0 mm 1 m/s 688 mmHg 94%
    05:00 +1°C° 0 mm 1 m/s 688 mmHg 95%
    06:00 +1°C° 0 mm 1 m/s 688 mmHg 95%
    07:00 +1°C° 0 mm 1 m/s 688 mmHg 95%
    08:00 +3°C° 0 mm 1 m/s 688 mmHg 91%
    09:00 +4°C° 0 mm 1 m/s 689 mmHg 87%
    10:00 +6°C° 0 mm 1 m/s 689 mmHg 84%
    11:00 +6°C° 0 mm 2 m/s 689 mmHg 83%
    12:00 +6°C° 0 mm 2 m/s 688 mmHg 82%
    13:00 +7°C° 0 mm 2 m/s 688 mmHg 82%
    14:00 +7°C° 0 mm 2 m/s 688 mmHg 84%
    15:00 +6°C° 0 mm 2 m/s 688 mmHg 86%
    16:00 +6°C° 0 mm 2 m/s 687 mmHg 88%
    17:00 +5°C° 0 mm 2 m/s 687 mmHg 91%
    18:00 +4°C° 0 mm 2 m/s 687 mmHg 94%
    19:00 +3°C° 0 mm 2 m/s 687 mmHg 97%
    20:00 +2°C° 0 mm 2 m/s 687 mmHg 97%
    21:00 +2°C° 0 mm 2 m/s 687 mmHg 97%
    22:00 +3°C° 0 mm 1 m/s 687 mmHg 97%
    23:00 +3°C° 0 mm 1 m/s 687 mmHg 97%

    Poimâine, 23 Februarie, Joi

    Timp Temperatura Precipitaţii Vânt Presiune Umiditate
    00:00 +3°C° 0 mm 1 m/s 687 mmHg 97%
    01:00 +3°C° 0 mm 1 m/s 687 mmHg 97%
    02:00 +3°C° 0 mm 1 m/s 687 mmHg 97%
    03:00 +2°C° 0 mm 1 m/s 687 mmHg 97%
    04:00 +2°C° 0 mm 1 m/s 686 mmHg 96%
    05:00 +2°C° 0 mm 1 m/s 686 mmHg 96%
    06:00 +2°C° 0 mm 1 m/s 686 mmHg 96%
    07:00 +2°C° 0 mm 1 m/s 686 mmHg 96%
    08:00 +4°C° 0 mm 1 m/s 687 mmHg 93%
    09:00 +4°C° 0 mm 2 m/s 687 mmHg 90%
    10:00 +6°C° 0 mm 2 m/s 687 mmHg 87%
    11:00 +6°C° 0 mm 2 m/s 687 mmHg 87%
    12:00 +6°C° 0 mm 2 m/s 686 mmHg 86%
    13:00 +7°C° 0 mm 3 m/s 686 mmHg 86%
    14:00 +5°C° 0 mm 3 m/s 685 mmHg 87%
    15:00 +5°C° 0 mm 3 m/s 685 mmHg 88%
    16:00 +5°C° 0 mm 3 m/s 684 mmHg 89%
    17:00 +5°C° 0 mm 2 m/s 684 mmHg 91%
    18:00 +4°C° 0 mm 2 m/s 684 mmHg 93%
    19:00 +4°C° 0 mm 2 m/s 683 mmHg 96%
    20:00 +4°C° 0,1 mm 2 m/s 683 mmHg 95%
    21:00 +4°C° 0,1 mm 2 m/s 683 mmHg 95%
    22:00 +4°C° 0,1 mm 2 m/s 683 mmHg 95%
    23:00 +4°C° 0,1 mm 2 m/s 683 mmHg 95%

    24 Februarie, Vineri

    Timp Temperatura Precipitaţii Vânt Presiune Umiditate
    00:00 +3°C° 0,1 mm 2 m/s 682 mmHg 96%
    01:00 +3°C° 0,1 mm 2 m/s 682 mmHg 96%
    02:00 +3°C° 0,1 mm 2 m/s 681 mmHg 96%
    03:00 +4°C° 0,1 mm 2 m/s 681 mmHg 95%
    04:00 +4°C° 0,1 mm 2 m/s 680 mmHg 95%
    05:00 +4°C° 0,1 mm 2 m/s 680 mmHg 96%
    06:00 +3°C° 0,1 mm 2 m/s 680 mmHg 96%
    07:00 +3°C° 0,1 mm 2 m/s 680 mmHg 96%
    08:00 +4°C° 0,5 mm 2 m/s 680 mmHg 95%
    09:00 +4°C° 0,5 mm 2 m/s 680 mmHg 95%
    10:00 +5°C° 0,5 mm 1 m/s 680 mmHg 94%
    11:00 +4°C° 1,2 mm 2 m/s 680 mmHg 94%
    12:00 +4°C° 1,2 mm 2 m/s 680 mmHg 93%
    13:00 +4°C° 1,2 mm 2 m/s 680 mmHg 93%
    14:00 +4°C° 1 mm 2 m/s 680 mmHg 92%
    15:00 +5°C° 1 mm 1 m/s 680 mmHg 91%
    16:00 +5°C° 1 mm 1 m/s 680 mmHg 89%
    17:00 +4°C° 0,2 mm 1 m/s 680 mmHg 90%
    18:00 +2°C° 0,2 mm 1 m/s 681 mmHg 90%
    19:00 +1°C° 0,2 mm 1 m/s 681 mmHg 90%
    20:00 +1°C° 0 mm 1 m/s 682 mmHg 90%
    21:00 +1°C° 0 mm 1 m/s 683 mmHg 90%
    22:00 -2°C° 0 mm 2 m/s 683 mmHg 90%
    23:00 0°C° 0,1 mm 1 m/s 684 mmHg 89%

    25 Februarie, Sâmbătă

    Timp Temperatura Precipitaţii Vânt Presiune Umiditate
    00:00 0°C° 0,1 mm 1 m/s 685 mmHg 88%
    01:00 -1°C° 0,1 mm 1 m/s 685 mmHg 87%
    02:00 -1°C° 0 mm 1 m/s 686 mmHg 86%
    03:00 -1°C° 0 mm 1 m/s 687 mmHg 85%
    04:00 -2°C° 0 mm 1 m/s 687 mmHg 85%
    05:00 -2°C° 0 mm 1 m/s 688 mmHg 83%
    06:00 -2°C° 0 mm 1 m/s 689 mmHg 81%
    07:00 -2°C° 0 mm 1 m/s 690 mmHg 79%
    08:00 0°C° 0 mm 1 m/s 690 mmHg 74%
    09:00 +1°C° 0 mm 1 m/s 691 mmHg 70%
    10:00 +3°C° 0 mm 1 m/s 692 mmHg 65%
    11:00 +4°C° 0 mm 1 m/s 692 mmHg 66%
    12:00 +4°C° 0 mm 2 m/s 692 mmHg 67%
    13:00 +4°C° 0 mm 2 m/s 692 mmHg 68%
    14:00 +4°C° 0 mm 2 m/s 691 mmHg 72%
    15:00 +4°C° 0 mm 2 m/s 691 mmHg 76%
    16:00 +3°C° 0 mm 3 m/s 690 mmHg 79%
    17:00 +3°C° 0 mm 2 m/s 690 mmHg 84%
    18:00 +2°C° 0 mm 2 m/s 690 mmHg 89%
    19:00 -1°C° 0 mm 2 m/s 690 mmHg 94%
    20:00 -1°C° 0 mm 2 m/s 690 mmHg 93%
    21:00 -1°C° 0 mm 2 m/s 690 mmHg 93%
    22:00 -1°C° 0 mm 2 m/s 690 mmHg 92%
    23:00 -1°C° 0 mm 2 m/s 690 mmHg 92%

    26 Februarie, Duminică

    Timp Temperatura Precipitaţii Vânt Presiune Umiditate
    00:00 -1°C° 0 mm 2 m/s 690 mmHg 92%
    01:00 -1°C° 0 mm 2 m/s 690 mmHg 92%
    02:00 +1°C° 0 mm 1 m/s 690 mmHg 92%
    03:00 0°C° 0 mm 1 m/s 690 mmHg 91%
    04:00 0°C° 0 mm 1 m/s 690 mmHg 91%
    05:00 0°C° 0 mm 1 m/s 690 mmHg 90%
    06:00 +1°C° 0 mm 1 m/s 690 mmHg 90%
    07:00 +1°C° 0 mm 1 m/s 690 mmHg 89%
    08:00 +3°C° 0 mm 1 m/s 691 mmHg 85%
    09:00 +5°C° 0 mm 1 m/s 692 mmHg 81%
    10:00 +7°C° 0 mm 1 m/s 692 mmHg 76%
    11:00 +8°C° 0 mm 1 m/s 692 mmHg 75%
    12:00 +8°C° 0 mm 2 m/s 692 mmHg 74%
    13:00 +9°C° 0 mm 2 m/s 692 mmHg 73%
    14:00 +10°C° 0 mm 1 m/s 692 mmHg 77%
    15:00 +9°C° 0 mm 1 m/s 692 mmHg 80%
    16:00 +9°C° 0 mm 1 m/s 692 mmHg 84%
    17:00 +7°C° 0 mm 1 m/s 691 mmHg 88%
    18:00 +5°C° 0 mm 1 m/s 691 mmHg 92%
    19:00 +3°C° 0 mm 1 m/s 691 mmHg 95%
    20:00 +3°C° 0 mm 1 m/s 691 mmHg 95%
    21:00 +3°C° 0 mm 1 m/s 691 mmHg 95%
    22:00 +2°C° 0 mm 1 m/s 691 mmHg 95%
    23:00 +2°C° 0 mm 1 m/s 691 mmHg 95%
    Arată mai mult